Location: Hoyos del Collado
(40.3594°N, 5.2003°W)
Time: 04:26:13
(UTC+00:00)

Cosmos 1727 Rocket - Visible Passes

Search period start: 25 July 2024 00:00
Search period end: 04 August 2024 00:00
Orbit: 961 x 995 km, 82.9° (Epoch: 24 July)

Date Brightness Start Highest point End Pass type
(mag) Time Alt. Az. Time Alt. Az. Time Alt. Az.
25 Jul 4.6 21:07:40 10° N 21:13:32 39° ENE 21:16:50 23° SE visible
25 Jul 5.4 22:53:25 10° NNW 22:58:46 30° W 23:01:35 21° SW visible
26 Jul 4.0 21:33:38 10° N 21:39:57 72° E 21:43:10 30° SSE visible
26 Jul 6.2 23:20:59 10° NW 23:24:36 16° W 23:27:54 11° WSW visible
27 Jul 5.5 20:15:48 10° NNE 20:20:13 20° ENE 20:24:36 10° ESE visible
27 Jul 4.3 21:59:58 10° NNW 22:06:10 63° W 22:09:30 28° SSW visible
28 Jul 4.7 20:41:11 10° N 20:46:53 35° ENE 20:51:07 16° SE visible
28 Jul 5.3 22:26:42 10° NNW 22:32:13 34° W 22:35:51 19° SW visible
29 Jul 4.0 21:07:05 10° N 21:13:20 65° E 21:17:30 22° SSE visible
29 Jul 6.1 22:54:04 10° NW 22:58:05 18° W 23:02:06 10° WSW visible
30 Jul 4.2 21:33:21 10° NNW 21:39:36 70° W 21:43:55 21° S visible
31 Jul 4.9 20:14:42 10° NNE 20:20:14 32° ENE 20:25:36 10° SE visible
31 Jul 5.2 21:59:59 10° NNW 22:05:40 38° W 22:10:21 14° SSW visible
01 Aug 4.1 20:40:32 10° N 20:46:43 58° E 20:52:04 14° SSE visible
01 Aug 6.1 22:27:11 10° NW 22:31:34 20° W 22:35:55 10° SW visible
02 Aug 4.1 21:06:44 10° N 21:13:00 78° W 21:18:35 13° S visible
03 Aug 5.1 21:33:18 10° NNW 21:39:07 42° W 21:44:52 10° SSW visible
